Maykop, Russia

8:35 PM MSK on October 18, 2017 (GMT +0300)
Maykop

Weather History for URKM - February, 2013

Change the Weather History Date:

Thursday, February 21, 2013

  Actual Average Record
Temperature  
Mean Temperature 42 °F -  
Max Temperature 49 °F - - ()
Min Temperature 34 °F - - ()
Degree Days  
Heating Degree Days 24    
Moisture  
Dew Point 35 °F    
Average Humidity 82    
Maximum Humidity 93    
Minimum Humidity 53    
Precipitation  
Precipitation 0.03 in - - ()
Sea Level Pressure  
Sea Level Pressure 30.10 in    
Wind  
Wind Speed 3 mph ()    
Max Wind Speed 7 mph    
Max Gust Speed -    
Visibility 7.1 miles    
Events Rain    
T = Trace of Precipitation, MM = Missing Value Source: Averaged Metar Reports

Daily Weather History Graph

Daily Weather History Graph

Search for Another Location

Airport or City:

Trip Planner

Search our weather history database for the weather conditions in past years. The results will help you decide how hot, cold, wet, or windy it might be!

Date:

Astronomy

Feb. 21, 2013 Rise Set
Actual Time 8:10 AM MSK 6:56 PM MSK
Civil Twilight 7:41 AM MSK 7:26 PM MSK
Nautical Twilight 7:07 AM MSK 8:00 PM MSK
Astronomical Twilight 6:33 AM MSK 8:33 PM MSK
Moon 2:45 PM MSK (2/21) 5:06 AM MSK (2/21)
Length of Visible Light 11h 45m
Length of Day
10h 45m
Waxing Gibbous, 81% of the Moon is Illuminated
Feb 21
Waxing Gibbous
Feb 26
Full
Mar 5
Last Quarter
Mar 11
New
Mar 19
First Quarter

Hourly Weather History & Observations

Time (MSK) Temp. Windchill Dew Point Humidity Pressure Visibility Wind Dir Wind Speed Gust Speed Precip Events Conditions
12:00 AM 37.4 °F 33.9 °F 33.8 °F 87% 29.95 in - NNE 4.5 mph - N/A   Clear
1:00 AM 37 °F - 32 °F 76% 30.01 in 12 mi ENE 4.5 mph - -   Overcast
1:00 AM 37.4 °F 33.9 °F 32.0 °F 81% 29.95 in - ENE 4.5 mph - N/A   Clear
2:00 AM 37.4 °F 33.9 °F 32.0 °F 81% 29.95 in - East 4.5 mph - N/A   Clear
3:00 AM 35.6 °F 31.8 °F 32.0 °F 87% 29.95 in - NNE 4.5 mph - N/A   Clear
4:00 AM 35 °F - 32 °F 84% 30.05 in 12 mi ENE 2.2 mph - -   Overcast
4:00 AM 35.6 °F - 32.0 °F 87% 29.98 in - Calm Calm - N/A   Clear
5:00 AM 35.6 °F - 32.0 °F 87% 29.98 in - South 2.2 mph - N/A   Clear
6:00 AM 35.6 °F - 32.0 °F 87% 30.01 in - West 2.2 mph - N/A   Clear
7:00 AM 36 °F - 33 °F 85% 30.09 in 12 mi South 2.2 mph - -   Overcast
7:00 AM 35.6 °F 31.8 °F 33.8 °F 93% 30.04 in 6.2 mi SSW 4.5 mph - N/A   Overcast
8:00 AM 37.4 °F - 33.8 °F 87% 30.06 in 6.2 mi NNW 2.2 mph - N/A   Overcast
9:00 AM 37.4 °F - 33.8 °F 87% 30.09 in 6.2 mi Calm Calm - N/A   Overcast
10:00 AM 37 °F - 35 °F 92% 30.15 in 6 mi Calm Calm - - Rain Light Rain Showers
10:00 AM 37.4 °F - 35.6 °F 93% 30.12 in 6.2 mi Calm Calm - N/A   Overcast
11:00 AM 39.2 °F - 35.6 °F 87% 30.12 in 6.2 mi South 2.2 mph - N/A Rain Light Rain Showers
12:00 PM 41.0 °F - 35.6 °F 81% 30.12 in 6.2 mi Calm Calm - N/A Rain Light Rain Showers
1:00 PM 43 °F - 36 °F 68% 30.18 in 6 mi SW 2.2 mph - -   Partly Cloudy
1:00 PM 42.8 °F - 37.4 °F 81% 30.15 in 6.2 mi SW 2.2 mph - N/A   Mostly Cloudy
2:00 PM 44.6 °F 42.3 °F 37.4 °F 76% 30.15 in 6.2 mi North 4.5 mph - N/A   Mostly Cloudy
3:00 PM 48.2 °F - 37.4 °F 66% 30.15 in 6.2 mi NNW 4.5 mph - N/A   Mostly Cloudy
4:00 PM 46 °F - 35 °F 53% 30.16 in 12 mi NW 4.5 mph - - Rain Light Rain Showers
4:00 PM 46.4 °F 44.4 °F 33.8 °F 62% 30.15 in 6.2 mi NNW 4.5 mph - N/A   Mostly Cloudy
5:00 PM 46.4 °F - 33.8 °F 62% 30.15 in 6.2 mi Calm Calm - N/A Rain Light Rain Showers
6:00 PM 42.8 °F 38.7 °F 32.0 °F 66% 30.15 in 6.2 mi NNW 6.7 mph - N/A Rain Light Rain Showers
7:00 PM 42 °F - 37 °F 77% 30.18 in 6 mi Calm Calm - - Rain Light Rain Showers
7:00 PM 41.0 °F - 39.2 °F 93% 30.15 in 6.2 mi Calm Calm - N/A Rain Light Rain Showers
8:00 PM 41.0 °F - 37.4 °F 87% 30.15 in 6.2 mi Calm Calm - N/A Rain Light Rain Showers
9:00 PM 39.2 °F - 35.6 °F 87% 30.18 in 6.2 mi SSE 2.2 mph - N/A Rain Light Rain Showers
10:00 PM 41 °F - 38 °F 86% 30.21 in 6 mi South 2.2 mph - - Rain Light Rain Showers
10:00 PM 41.0 °F - 39.2 °F 93% 30.18 in 6.2 mi South 2.2 mph - N/A Rain Light Rain Showers
11:00 PM 41.0 °F 38.1 °F 39.2 °F 93% 30.18 in 6.2 mi SE 4.5 mph - N/A Rain Light Rain Showers